Simultaneous Nadir Overpasses (SNOs) Predictions

Prediction of SNOs between AQUA and NOAA-19 Satellite Orbit:

Table of predicted SNOs for the next 14.0 days since TLE Epoch: 7/19/2014
Index Date (AQUA) Time (AQUA) Lat,Lon (AQUA) SZA (AQUA ) Date (NOAA-19) Time (NOAA-19) Lat,Lon (NOAA-19) SZA (NOAA-19 ) Distance(km) Time Diff (sec)
1 07/20/2014 07:17:53 77.36, 54.74 57.27 07/20/2014 07:16:53 77.35, 54.77 57.29 0.72 60
2 07/20/2014 08:07:03 -76.62,-134.89 123.62 07/20/2014 08:07:41 -76.61,-134.81 123.64 2.10 38
3 07/22/2014 12:51:27 -77.02, 152.59 122.70 07/22/2014 12:51:40 -77.03, 152.51 122.69 2.32 13
4 07/24/2014 17:35:46 -77.20, 80.87 122.04 07/24/2014 17:35:33 -77.20, 80.84 122.03 0.70 13
5 07/24/2014 18:23:46 72.82, -99.65 53.05 07/24/2014 18:24:59 72.95, -98.66 53.15 35.37 73
6 07/26/2014 22:20:04 -77.33, 9.28 121.40 07/26/2014 22:19:25 -77.33, 9.32 121.39 0.92 39
7 07/26/2014 23:09:20 76.82, 178.86 57.99 07/26/2014 23:10:10 76.82, 178.82 57.98 0.97 50
8 07/29/2014 03:04:23 -77.52, -62.53 120.66 07/29/2014 03:03:18 -77.51, -62.44 120.66 2.43 65
9 07/29/2014 03:53:39 77.01, 107.09 58.73 07/29/2014 03:54:03 77.01, 107.09 58.72 0.13 24




NCC Satellite Simultaneous Nadir Overpasses (SNOs) Prediction Service
